Weather in Rybinka

Russia / Volgograd Oblast     49°59′31″N   44°46′34″E
temp.,
°C
wind,
m/s
gust,
m/s
humid.,
%
clouds,
%
prec.,
mm/h
press.,
hPa
HPBL,
m
27 september, mon
mon2700:00+9wnw9158664 0.0 1004659
03:00+9wnw81387100 0.1 1005927
06:00+9wnw81387100 0.2 1005651
09:00+10nw71189100 0.5 1006611
12:00+11nnw6118798 0.8 1009677
15:00+13nnw686899 1.2 10101034
18:00+11nnw5117645 0.3 1012302
21:00+9nnw410897 0.3 1014227
28 september, tue
tue2800:00+7nnw379410 0.0 1015154
03:00+7nnw379487 0.0 1016166
06:00+9n3688100 0.0 1018314
09:00+9nne4581100 0.0 1019449
12:00+8ene5768100 0.1 1021509
15:00+8ne5675100 0.1 1023797
18:00+8ne5868100 0.0 1025907
21:00+7ne6858100 0.0 1026783
29 september, wed
wed2900:00+7n3666100 0.0 1027305
03:00+7n365995 0.0 1027226
06:00+3n37755 0.0 1028145
09:00+7nne5657100 0.0 1029698
12:00+10ne554285 0.0 10291714
15:00+11ne663945 0.0 10281833
18:00+7ne36505 0.0 1029112
21:00+5ne35575 0.0 103182
30 september, thu
thu3000:00+5nne34605 0.0 103154
03:00+3nne35683 0.0 103280
06:00+3ne35735 0.0 103372
09:00+8ne45510 0.0 1034580
12:00+11ene44375 0.0 10331645
15:00+11ene44355 0.0 10331838
18:00+8e33474 0.0 103326
21:00+6ne22535 0.0 103411
1 october, fri
fri100:00+5n22555 0.0 103510
03:00+4n22598 0.0 103510
06:00+3n22615 0.0 103510
09:00+9n22455 0.0 1036344
12:00+12n234023 0.0 10351664
15:00+13n333955 0.0 10341747
18:00+10nnw22525 0.0 103417
21:00+8n225824 0.0 103511